Total_Precipitation_Accumulation
1.71 1.88 2.03 2.13 2.10 1.93 1.96 2.07 1.97 1.68 1.49 1.33 1.24 1.17 1.17 1.23 1.52 1.43 1.25 1.22 1.09 1.02 0.97 0.94 0.94 0.97 1.13 1.38 1.57 1.67 1.74 1.76 1.80 1.88 1.96 1.97 1.91 1.91
1.71 1.83 1.86 1.90 1.95 1.84 1.83 1.96 1.96 1.77 1.53 1.32 1.19 1.14 1.22 1.17 1.34 1.25 1.34 1.43 1.13 1.00 0.93 0.92 0.87 0.81 0.76 0.84 0.97 1.09 1.16 1.21 1.31 1.41 1.47 1.48 1.48 1.51
1.22 1.34 1.54 1.73 1.82 1.81 1.85 1.91 1.96 1.84 1.59 1.45 1.21 1.20 1.34 1.29 1.27 1.22 1.32 1.37 1.16 1.05 0.89 0.84 0.82 0.76 0.74 0.70 0.71 0.78 0.86 0.91 0.98 1.06 1.12 1.19 1.20 1.23
1.04 1.06 1.16 1.39 1.56 1.68 1.76 1.77 1.84 1.83 1.67 1.64 1.56 1.34 1.29 1.27 1.38 1.45 1.39 1.37 1.31 1.30 1.17 0.96 0.86 0.81 0.77 0.72 0.67 0.65 0.66 0.70 0.76 0.80 0.82 0.92 1.05 1.10
0.95 0.96 1.04 1.15 1.31 1.39 1.48 1.58 1.66 1.78 1.77 1.59 1.65 1.60 1.38 1.34 1.37 1.45 1.51 1.61 1.47 1.42 1.48 1.31 1.09 0.97 0.88 0.80 0.73 0.69 0.68 0.69 0.70 0.75 0.77 0.81 0.84 0.89
0.90 0.97 0.98 1.01 1.18 1.39 1.48 1.54 1.58 1.69 1.81 1.73 1.66 1.64 1.49 1.43 1.41 1.44 1.58 1.69 1.69 1.48 1.39 1.34 1.27 1.15 1.01 0.91 0.83 0.79 0.78 0.75 0.76 0.76 0.77 0.84 0.86 0.85
0.78 0.79 0.86 0.95 1.02 1.21 1.33 1.55 1.57 1.69 1.76 1.82 1.75 1.60 1.46 1.42 1.40 1.39 1.49 1.69 1.74 1.70 1.59 1.40 1.28 1.11 1.01 0.98 0.96 0.93 0.89 0.85 0.86 0.91 0.93 0.93 0.94 0.96
0.76 0.78 0.77 0.80 0.84 0.91 0.94 1.17 1.37 1.49 1.60 1.62 1.68 1.57 1.44 1.39 1.48 1.51 1.50 1.53 1.64 1.66 1.51 1.56 1.50 1.31 1.15 1.03 1.10 1.16 1.13 1.08 0.99 0.96 0.99 1.03 1.04 1.06
0.71 0.80 0.83 0.80 0.87 0.96 0.94 0.98 1.08 1.14 1.27 1.39 1.44 1.41 1.40 1.37 1.46 1.52 1.51 1.43 1.36 1.46 1.43 1.48 1.52 1.40 1.25 1.16 1.18 1.14 1.12 1.10 1.05 0.98 0.95 0.95 0.99 1.05
0.74 0.74 0.84 0.89 0.96 1.12 1.10 1.16 1.10 1.00 1.01 1.07 1.21 1.27 1.23 1.34 1.43 1.61 1.71 1.56 1.42 1.45 1.43 1.36 1.31 1.26 1.18 1.18 1.21 1.07 1.01 1.01 0.99 0.96 0.91 0.88 0.88 0.92
0.73 0.74 0.85 0.94 1.11 1.22 1.23 1.24 1.14 1.06 1.12 1.21 1.27 1.33 1.35 1.41 1.49 1.57 1.65 1.64 1.54 1.47 1.38 1.27 1.17 1.17 1.17 1.14 1.11 1.13 1.06 1.01 0.98 0.96 0.94 0.92 0.95 1.04
0.78 0.76 0.96 0.97 1.06 1.12 1.18 1.29 1.30 1.17 1.13 1.15 1.17 1.20 1.20 1.28 1.50 1.54 1.66 1.75 1.61 1.51 1.38 1.27 1.23 1.34 1.39 1.22 1.08 1.05 1.02 1.07 1.08 1.04 1.03 1.03 1.08 1.06
0.75 0.75 0.71 0.85 0.88 0.98 1.11 1.17 1.40 1.29 1.22 1.23 1.18 1.07 1.06 1.10 1.23 1.43 1.59 1.66 1.61 1.40 1.27 1.27 1.27 1.31 1.31 1.20 1.11 1.08 1.06 1.03 1.03 1.02 1.04 1.10 1.16 1.12
0.60 0.67 0.66 0.75 0.79 0.87 0.89 1.07 1.27 1.23 1.16 1.25 1.25 1.16 1.08 1.07 1.09 1.17 1.35 1.43 1.39 1.35 1.30 1.27 1.26 1.22 1.19 1.09 1.05 1.08 1.11 1.07 1.04 1.04 1.03 1.17 1.21 1.29
0.44 0.59 0.67 0.74 0.72 0.70 0.83 1.03 1.09 1.11 1.25 1.22 1.23 1.18 1.10 1.07 1.01 1.07 1.17 1.23 1.20 1.17 1.18 1.21 1.28 1.28 1.25 1.14 1.00 0.95 1.05 1.11 1.08 1.07 1.09 1.11 1.07 1.12
0.44 0.59 0.72 0.78 0.75 0.72 0.79 0.92 0.97 1.10 1.26 1.16 1.12 1.08 1.02 1.04 1.02 1.01 1.04 1.10 1.16 1.12 1.09 1.10 1.25 1.45 1.48 1.35 1.28 1.17 1.10 1.11 1.09 1.15 1.19 1.19 1.19 1.19
0.57 0.73 0.85 0.86 0.87 0.83 0.85 0.94 0.93 0.90 0.98 0.95 0.98 1.01 1.02 1.02 0.97 0.91 0.94 0.98 1.02 0.99 0.98 0.98 1.00 1.11 1.27 1.36 1.40 1.32 1.32 1.34 1.31 1.34 1.36 1.27 1.16 1.17
0.74 0.90 1.02 1.09 1.09 1.03 0.99 0.97 0.90 0.87 0.84 0.86 0.95 0.97 0.94 0.97 0.98 0.93 0.95 0.98 0.99 0.94 0.92 0.88 0.91 0.99 1.08 1.12 1.08 1.06 1.11 1.17 1.19 1.28 1.37 1.33 1.17 1.07
0.98 1.02 1.07 1.12 1.15 1.09 0.99 0.90 0.78 0.71 0.73 0.80 0.82 0.84 0.88 0.91 0.96 0.96 0.95 0.94 0.89 0.86 0.84 0.82 0.88 0.98 1.08 1.02 0.88 0.82 0.93 1.03 1.10 1.16 1.21 1.17 1.04 0.98
1.03 1.05 1.13 1.13 1.08 0.96 0.84 0.75 0.64 0.62 0.66 0.68 0.68 0.66 0.73 0.80 0.85 0.89 0.90 0.89 0.85 0.83 0.82 0.81 0.86 0.96 1.07 1.05 0.92 0.80 0.84 0.94 1.01 1.07 1.07 1.09 1.05 1.08
0.72 0.77 0.81 0.84 0.80 0.71 0.64 0.61 0.56 0.55 0.56 0.58 0.61 0.62 0.67 0.69 0.70 0.75 0.84 0.92 0.93 0.89 0.87 0.82 0.83 0.94 0.97 1.03 0.98 0.80 0.74 0.85 0.95 0.97 1.00 1.10 1.13 1.10
0.50 0.53 0.53 0.51 0.51 0.53 0.54 0.55 0.56 0.55 0.56 0.59 0.62 0.64 0.69 0.73 0.71 0.71 0.76 0.83 0.87 0.88 0.86 0.84 0.86 0.93 0.97 1.02 0.95 0.81 0.73 0.73 0.85 1.02 1.03 1.03 1.02 0.99
0.46 0.48 0.48 0.46 0.46 0.49 0.54 0.57 0.59 0.59 0.58 0.61 0.65 0.66 0.69 0.73 0.74 0.77 0.79 0.83 0.86 0.87 0.87 0.87 0.91 0.96 0.95 0.93 0.89 0.83 0.78 0.75 0.75 0.84 0.93 1.05 0.97 0.81